Location: Fours
(44.3167°N, 6.7000°E)
Time: 12:30:31
(UTC+00:00)

NOSS 3-3 (A) - Visible Passes

Search period start: 20 April 2021 00:00
Search period end: 30 April 2021 00:00
Orbit: 815 x 1397 km, 63.4° (Epoch: 15 April)

Date Brightness Start Highest point End Pass type
(mag) Time Alt. Az. Time Alt. Az. Time Alt. Az.
20 Apr 4.3 00:58:28 51° E 00:58:28 51° E 01:04:02 10° NE visible
20 Apr 5.0 02:45:53 22° W 02:49:01 35° NW 02:55:08 10° NNE visible
21 Apr 5.3 00:14:53 28° E 00:14:53 28° E 00:18:50 10° NE visible
21 Apr 4.4 02:02:18 40° W 02:03:53 50° NW 02:10:21 10° NNE visible
21 Apr 6.0 03:52:14 10° WNW 03:56:36 19° NNW 04:01:22 10° NNE visible
21 Apr 5.9 23:31:17 16° E 23:31:17 16° E 23:33:11 10° ENE visible
22 Apr 3.8 01:18:42 73° WNW 01:18:56 75° NW 01:25:32 10° NE visible
22 Apr 5.7 03:06:17 10° WNW 03:11:06 23° NNW 03:16:25 10° NNE visible
23 Apr 4.1 00:35:03 62° ENE 00:35:03 62° ENE 00:40:38 10° NE visible
23 Apr 5.3 02:22:28 19° WNW 02:25:44 29° NNW 02:31:35 10° NNE visible
23 Apr 5.0 23:51:22 35° ENE 23:51:22 35° ENE 23:55:34 10° NE visible
24 Apr 4.8 01:38:47 33° WNW 01:40:31 40° NW 01:46:48 10° NNE visible
24 Apr 6.1 03:29:23 10° NW 03:33:32 17° NNW 03:38:00 10° NNE visible
24 Apr 5.7 23:07:39 20° ENE 23:07:39 20° ENE 23:10:14 10° NE visible
25 Apr 4.1 00:55:04 57° WNW 00:55:28 58° NW 01:02:00 10° NNE visible
25 Apr 6.0 02:43:25 10° WNW 02:47:58 20° NNW 02:52:57 10° NNE visible
25 Apr 6.2 22:23:55 11° ENE 22:23:55 11° ENE 22:24:15 10° ENE visible
26 Apr 4.0 00:11:19 71° NNE 00:11:19 71° NNE 00:17:10 10° NE visible
26 Apr 5.7 01:58:43 15° WNW 02:02:30 25° NNW 02:08:03 10° NNE visible
26 Apr 6.4 03:52:15 10° NW 03:56:09 16° N 04:00:21 10° NE visible
26 Apr 4.6 23:27:32 45° ENE 23:27:32 45° ENE 23:32:12 10° NE visible
27 Apr 5.2 01:14:55 26° WNW 01:17:12 33° NW 01:23:15 10° NNE visible
27 Apr 6.3 03:06:30 10° NW 03:10:29 16° N 03:14:46 10° NNE visible
27 Apr 5.3 22:43:41 27° ENE 22:43:41 27° ENE 22:47:03 10° NE visible
28 Apr 4.6 00:31:05 43° WNW 00:32:03 46° NW 00:38:28 10° NNE visible
28 Apr 6.2 02:20:34 10° WNW 02:24:52 18° NNW 02:29:32 10° NNE visible
28 Apr 5.8 21:59:48 16° ENE 21:59:48 16° ENE 22:01:32 10° ENE visible
28 Apr 4.0 23:47:11 68° NW 23:47:11 68° NW 23:53:39 10° NE visible
29 Apr 6.0 01:34:37 10° WNW 01:39:20 22° NNW 01:44:33 10° NNE visible
29 Apr 6.5 03:29:07 10° NNW 03:33:09 16° N 03:37:27 10° NE visible
29 Apr 4.1 23:03:14 63° ENE 23:03:14 63° ENE 23:08:46 10° NE visible
